CW5532 Weather Reports


Display with metric or nautical units.
time (UTC)temp
F
wind
direction
speed
MPH
gust
MPH
rain 1hr
in
rain 24hr
in
rain mn
in
humidity
%
barometer
mb
20260508170711 63 141 1.0 5.0 0.00 0.00 0.00 70 1012.0
20260508163210 64 115 2.0 12.0 0.00 0.00 0.00 68 1012.1
20260508160710 65 101 2.0 7.0 0.00 0.00 0.00 65 1011.9
20260508160210 65 109 3.0 9.0 0.00 0.00 0.00 63 1012.0
20260508153211 67 140 0.0 3.0 0.00 0.00 0.00 57 1012.0
20260508143710 67 270 0.0 1.0 0.00 0.00 0.00 62 1011.9
20260508140710 65 110 0.0 0.0 0.00 0.00 0.00 66 1012.6
20260508140210 64 188 0.0 7.0 0.00 0.00 0.00 67 1012.7
20260508133711 63 162 1.0 6.0 0.00 0.00 0.00 68 1013.0
20260508133211 63 119 1.0 9.0 0.00 0.00 0.00 67 1013.0
20260508130711 64 104 4.0 9.0 0.00 0.00 0.00 63 1012.8
20260508120210 65 114 0.0 3.0 0.00 0.00 0.00 55 1012.5
20260508113710 65 65 0.0 0.0 0.00 0.00 0.00 56 1012.4
20260508110710 64 68 3.0 9.0 0.00 0.00 0.00 57 1012.6
20260508083209 59 154 0.0 0.0 0.00 0.00 0.00 73 1012.7
20260508080710 58 80 0.0 0.0 0.00 0.00 0.00 75 1012.6
20260508080210 57 105 0.0 0.0 0.00 0.00 0.00 75 1012.6
20260508070709 54 98 0.0 0.0 0.00 0.00 0.00 80 1012.3
20260508063709 52 277 0.0 0.0 0.00 0.00 0.00 84 1012.4
20260508063210 51 277 0.0 0.0 0.00 0.00 0.00 84 1012.4
20260508060709 49 257 0.0 0.0 0.00 0.00 0.00 85 1012.4
20260508060209 48 261 0.0 0.0 0.00 0.00 0.00 85 1012.4
20260508050709 42 255 0.0 0.0 0.00 0.00 0.00 85 1012.2
20260508043209 41 253 0.0 0.0 0.00 0.00 0.00 85 1011.9
20260508040209 42 249 0.0 0.0 0.00 0.00 0.00 85 1011.5
20260508030709 43 249 0.0 0.0 0.00 0.00 0.00 85 1011.6
20260508023709 44 249 0.0 0.0 0.00 0.00 0.00 85 1011.7
20260508020709 46 249 0.0 0.0 0.00 0.00 0.00 84 1011.7
20260508020208 47 249 0.0 0.0 0.00 0.00 0.00 84 1011.7
20260508010709 49 249 0.0 0.0 0.00 0.00 0.00 84 1012.0
20260508003709 50 249 0.0 0.0 0.00 0.00 0.00 84 1011.9
20260508003209 50 249 0.0 0.0 0.00 0.00 0.00 84 1012.0
20260508000708 49 275 0.0 0.0 0.00 0.00 0.00 84 1012.1
20260508000209 49 275 0.0 0.0 0.00 0.00 0.00 84 1012.2
20260507230708 51 275 0.0 0.0 0.00 0.00 0.00 83 1012.5
20260507230208 51 275 0.0 0.0 0.00 0.00 0.00 83 1012.5
20260507223708 51 275 0.0 0.0 0.00 0.00 0.00 83 1012.8
20260507223208 51 275 0.0 0.0 0.00 0.00 0.00 83 1012.9
20260507220709 52 275 0.0 0.0 0.00 0.00 0.00 83 1012.9
20260507220209 52 275 0.0 0.0 0.00 0.00 0.00 83 1012.9
20260507210708 53 334 0.0 0.0 0.00 0.00 0.00 83 1012.7
20260507210208 53 333 0.0 0.0 0.00 0.00 0.00 82 1012.7
20260507203708 55 227 0.0 0.0 0.00 0.00 0.00 82 1012.6
20260507200708 56 227 0.0 0.0 0.00 0.00 0.00 80 1012.3
20260507193708 58 101 0.0 0.0 0.00 0.00 0.00 78 1011.9
20260507193208 58 101 0.0 0.0 0.00 0.00 0.00 78 1011.8
20260507190708 59 93 0.0 7.0 0.00 0.00 0.00 76 1011.4
20260507183708 60 117 1.0 6.0 0.00 0.00 0.00 73 1011.0
20260507183208 61 105 3.0 9.0 0.00 0.00 0.00 72 1010.9
20260507180208 63 128 0.0 7.0 0.00 0.00 0.00 69 1010.1
20260507173208 63 134 0.0 10.0 0.00 0.00 0.00 69 1010.1